Home > Weather > Worb > Past weeks

Flag for Switzerland Past Weather in Worb, Bern, Switzerland — Yesterday and Last 2 Weeks

Now
66 °F

Partly cloudy.


Feels Like: 66 °F
Forecast: 56 / 75 °F
Wind: 6 mph from East

Location: Bern / Belp

Current Time: Jul 26, 2016 at 11:59:15 PM

Latest Report: Jul 26, 2016 at 11:20 PM


Visibility: N/A

Pressure: 30.12 "Hg (28.13 "Hg at 583m altitude)

Humidity: 88%

Dew Point: 63 °F

Location of WorbLocation

Past Weather in Worb — Graph

°F

Worb Temperature Yesterday

Maximum temperature yesterday: 81 °F (at 3:20 PM)
Minimum temperature yesterday: 61 °F (at 4:20 AM)
Average temperature yesterday: 70 °F

High & Low Weather Summary for the Past Weeks

 TemperatureHumidityPressure
High91 °F (Jul 19, 5:50 PM)100% (Jul 12, 12:50 AM)30.33 "Hg (Jul 12, 12:50 AM)
Low43 °F (Jul 16, 4:50 AM)26% (Jul 19, 5:20 PM)29.98 "Hg (Jul 11, 10:20 PM)
Average66 °F78%30.13 "Hg
* Reported Jul 11 10:20 PM — Jul 26 10:20 PM, Worb, Weather by CustomWeather, © 2016

Note: Actual official high and low records may vary slightly from our data, if they occured in-between our weather recording intervals... More about our weather records

Advertising

Worb Weather History for the Previous 24 Hours

Scroll right to see more
 ConditionsComfort  
Time TempWeatherWind HumidityBarometerVisibility
10:20 PM
Tue, Jul 26
66 °FPartly cloudy.5 mph88%30.12 "HgN/A
9:50 PM68 °FScattered clouds.5 mph83%30.12 "HgN/A
9:20 PM70 °FThundershowers. Partly sunny.6 mph78%30.12 "HgN/A
8:50 PM72 °FThundershowers. Broken clouds.6 mph73%30.12 "HgN/A
8:20 PM72 °FThundershowers. Broken clouds.12 mph78%30.09 "HgN/A
7:50 PM73 °FPartly sunny.9 mph74%30.09 "HgN/A
7:20 PM75 °FThundershowers. Partly sunny.12 mph65%30.09 "HgN/A
6:50 PM77 °FThundershowers. Broken clouds.6 mph61%30.09 "HgN/A
6:20 PM81 °FThundershowers. Scattered clouds.2 mph54%30.09 "HgN/A
5:50 PM81 °FBroken clouds.1 mph54%30.09 "HgN/A
5:20 PM79 °FScattered clouds.7 mph54%30.09 "HgN/A
4:50 PM82 °FPartly sunny.6 mph51%30.09 "HgN/A
4:20 PM81 °FBroken clouds.3 mph51%30.09 "HgN/A
3:50 PM82 °FScattered clouds.5 mph55%30.09 "HgN/A
3:20 PM81 °FScattered clouds.3 mph54%30.09 "HgN/A
2:50 PM79 °FScattered clouds.3 mph51%30.12 "HgN/A
2:20 PM79 °FScattered clouds.3 mph58%30.12 "HgN/A
1:50 PM79 °FScattered clouds.5 mph58%30.12 "HgN/A
1:20 PM77 °FScattered clouds.3 mph61%30.12 "HgN/A
12:50 PM77 °FScattered clouds.5 mph65%30.12 "HgN/A
12:20 PM75 °FScattered clouds.8 mph69%30.15 "HgN/A
11:50 AM75 °FPartly sunny.7 mph65%30.15 "HgN/A
11:20 AM73 °FPartly sunny.7 mph69%30.15 "HgN/A
10:50 AM73 °FPartly sunny.7 mph74%30.15 "HgN/A
10:20 AM72 °FPartly sunny.5 mph78%30.15 "HgN/A
9:50 AM70 °FScattered clouds.2 mph78%30.15 "HgN/A
9:20 AM70 °FScattered clouds.2 mph83%30.15 "HgN/A
8:50 AM68 °FScattered clouds.2 mph88%30.15 "HgN/A
8:20 AM66 °FScattered clouds.3 mph94%30.15 "HgN/A
7:50 AM66 °FScattered clouds.5 mph94%30.12 "HgN/A
7:20 AM64 °FScattered clouds.3 mph100%30.12 "HgN/A
6:50 AM63 °FPassing clouds.3 mph100%30.12 "HgN/A
6:20 AM63 °FPassing clouds.3 mph100%30.12 "HgN/A
5:50 AM63 °FPassing clouds.5 mph100%30.12 "Hg4 mi
5:20 AM64 °FMild.5 mph94%30.12 "HgN/A
4:50 AM66 °FOvercast.6 mph88%30.12 "HgN/A
4:20 AM64 °FOvercast.3 mph100%30.15 "HgN/A
3:50 AM64 °FPartly cloudy.6 mph100%30.15 "HgN/A
3:20 AM64 °FMostly cloudy.5 mph100%30.15 "HgN/A
2:50 AM66 °FPartly cloudy.5 mph94%30.15 "HgN/A
2:20 AM66 °FMostly cloudy.6 mph94%30.15 "HgN/A
1:50 AM66 °FPartly cloudy.7 mph88%30.15 "HgN/A
1:20 AM66 °FOvercast.6 mph94%30.15 "HgN/A
12:50 AM66 °FPartly cloudy.7 mph88%30.15 "HgN/A
12:20 AM66 °FPartly cloudy.6 mph88%30.15 "HgN/A
11:50 PM
Mon, Jul 25
66 °FPartly cloudy.7 mph94%30.15 "HgN/A
11:20 PM66 °FOvercast.6 mph94%30.15 "HgN/A
Weather by CustomWeather, © 2016

See weather overviewHow to use our weather pages